• In Hungary
  • List of Countries
  • For 7 days
  • Water Temperature
  • Satellite Maps
  • Weather Map
  • News
  • Weather Widgets
  • user-avatar
    Login

    Hourly Weather Rukopol

    Today, 23 June, Saturday

    Time Temperature Precipitation Wind Pressure Humidity
    00:00 +19°C° 0 mm 1 mps 754 mmHg 75%
    01:00 +18°C° 0 mm 1 mps 754 mmHg 76%
    02:00 +18°C° 0 mm 1 mps 754 mmHg 77%
    03:00 +16°C° 0 mm 1 mps 754 mmHg 77%
    04:00 +18°C° 0 mm 1 mps 754 mmHg 74%
    05:00 +19°C° 0 mm 1 mps 755 mmHg 70%
    06:00 +21°C° 0 mm 1 mps 755 mmHg 67%
    07:00 +22°C° 0 mm 1 mps 755 mmHg 61%
    08:00 +24°C° 0 mm 1 mps 755 mmHg 55%
    09:00 +26°C° 0 mm 2 mps 755 mmHg 49%
    10:00 +27°C° 0 mm 2 mps 755 mmHg 46%
    11:00 +28°C° 0 mm 2 mps 755 mmHg 43%
    12:00 +29°C° 0 mm 2 mps 755 mmHg 40%
    13:00 +29°C° 0 mm 2 mps 755 mmHg 39%
    14:00 +29°C° 0 mm 2 mps 754 mmHg 38%
    15:00 +30°C° 0 mm 2 mps 754 mmHg 38%
    16:00 +30°C° 0 mm 2 mps 754 mmHg 42%
    17:00 +29°C° 0 mm 2 mps 754 mmHg 46%
    18:00 +29°C° 0 mm 2 mps 754 mmHg 49%
    19:00 +27°C° 0 mm 2 mps 754 mmHg 53%
    20:00 +25°C° 0 mm 1 mps 754 mmHg 57%
    21:00 +23°C° 0 mm 1 mps 754 mmHg 61%
    22:00 +22°C° 0 mm 1 mps 754 mmHg 62%
    23:00 +22°C° 0 mm 1 mps 754 mmHg 64%

    Tomorrow, 24 June, Sunday

    Time Temperature Precipitation Wind Pressure Humidity
    00:00 +21°C° 0 mm 1 mps 755 mmHg 66%
    01:00 +21°C° 0 mm 1 mps 755 mmHg 67%
    02:00 +20°C° 0 mm 1 mps 755 mmHg 68%
    03:00 +20°C° 0 mm 1 mps 755 mmHg 69%
    04:00 +21°C° 0 mm 1 mps 755 mmHg 67%
    05:00 +22°C° 0 mm 1 mps 755 mmHg 64%
    06:00 +23°C° 0 mm 1 mps 755 mmHg 61%
    07:00 +25°C° 0 mm 1 mps 755 mmHg 57%
    08:00 +26°C° 0 mm 1 mps 755 mmHg 52%
    09:00 +28°C° 0 mm 2 mps 755 mmHg 47%
    10:00 +28°C° 0 mm 2 mps 755 mmHg 45%
    11:00 +29°C° 0 mm 2 mps 755 mmHg 42%
    12:00 +30°C° 0 mm 2 mps 755 mmHg 39%
    13:00 +31°C° 0 mm 2 mps 755 mmHg 38%
    14:00 +31°C° 0 mm 2 mps 755 mmHg 37%
    15:00 +32°C° 0 mm 2 mps 755 mmHg 35%
    16:00 +32°C° 0 mm 2 mps 755 mmHg 38%
    17:00 +31°C° 0 mm 1 mps 755 mmHg 41%
    18:00 +31°C° 0 mm 1 mps 755 mmHg 44%
    19:00 +29°C° 0 mm 1 mps 755 mmHg 47%
    20:00 +27°C° 0 mm 1 mps 755 mmHg 49%
    21:00 +25°C° 0 mm 1 mps 755 mmHg 52%
    22:00 +25°C° 0 mm 1 mps 756 mmHg 53%
    23:00 +24°C° 0 mm 2 mps 756 mmHg 55%

    Day after tomorrow, 25 June, Monday

    Time Temperature Precipitation Wind Pressure Humidity
    00:00 +24°C° 0 mm 2 mps 756 mmHg 56%
    01:00 +23°C° 0 mm 2 mps 756 mmHg 57%
    02:00 +23°C° 0 mm 2 mps 756 mmHg 58%
    03:00 +21°C° 0 mm 2 mps 756 mmHg 59%
    04:00 +23°C° 0 mm 2 mps 756 mmHg 60%
    05:00 +24°C° 0 mm 2 mps 756 mmHg 60%
    06:00 +25°C° 0 mm 2 mps 757 mmHg 60%
    07:00 +27°C° 0 mm 2 mps 757 mmHg 56%
    08:00 +29°C° 0 mm 2 mps 757 mmHg 52%
    09:00 +30°C° 0 mm 3 mps 757 mmHg 48%
    10:00 +31°C° 0 mm 2 mps 757 mmHg 44%
    11:00 +32°C° 0 mm 2 mps 757 mmHg 41%
    12:00 +34°C° 0 mm 2 mps 757 mmHg 37%
    13:00 +34°C° 0 mm 2 mps 756 mmHg 36%
    14:00 +34°C° 0 mm 1 mps 756 mmHg 35%
    15:00 +34°C° 0 mm 1 mps 756 mmHg 34%
    16:00 +34°C° 0 mm 1 mps 756 mmHg 37%
    17:00 +34°C° 0 mm 1 mps 756 mmHg 40%
    18:00 +31°C° 0 mm 0 mps 756 mmHg 43%
    19:00 +31°C° 0 mm 1 mps 756 mmHg 45%
    20:00 +29°C° 0 mm 1 mps 756 mmHg 48%
    21:00 +27°C° 0 mm 2 mps 756 mmHg 50%
    22:00 +27°C° 0 mm 2 mps 756 mmHg 53%
    23:00 +26°C° 0 mm 2 mps 756 mmHg 56%

    26 June, Tuesday

    Time Temperature Precipitation Wind Pressure Humidity
    00:00 +25°C° 0 mm 2 mps 756 mmHg 59%
    01:00 +25°C° 0 mm 2 mps 756 mmHg 62%
    02:00 +24°C° 0 mm 2 mps 756 mmHg 64%
    03:00 +24°C° 0 mm 2 mps 756 mmHg 67%
    04:00 +25°C° 0 mm 1 mps 756 mmHg 65%
    05:00 +26°C° 0 mm 1 mps 756 mmHg 64%
    06:00 +27°C° 0 mm 1 mps 757 mmHg 63%
    07:00 +29°C° 0 mm 1 mps 757 mmHg 58%
    08:00 +30°C° 0 mm 1 mps 757 mmHg 54%
    09:00 +32°C° 0 mm 1 mps 757 mmHg 49%
    10:00 +33°C° 0 mm 1 mps 757 mmHg 45%
    11:00 +34°C° 0 mm 2 mps 757 mmHg 42%
    12:00 +35°C° 0 mm 2 mps 756 mmHg 38%
    13:00 +35°C° 0 mm 3 mps 756 mmHg 38%
    14:00 +36°C° 0 mm 3 mps 756 mmHg 37%
    15:00 +36°C° 0 mm 3 mps 756 mmHg 36%
    16:00 +35°C° 0 mm 3 mps 756 mmHg 40%
    17:00 +34°C° 0 mm 3 mps 756 mmHg 44%
    18:00 +34°C° 0 mm 3 mps 756 mmHg 49%
    19:00 +31°C° 0 mm 3 mps 756 mmHg 53%
    20:00 +29°C° 0 mm 3 mps 756 mmHg 57%
    21:00 +27°C° 0 mm 3 mps 757 mmHg 62%
    22:00 +26°C° 0.1 mm 3 mps 757 mmHg 65%
    23:00 +26°C° 0.1 mm 3 mps 757 mmHg 68%

    27 June, Wednesday

    Time Temperature Precipitation Wind Pressure Humidity
    00:00 +25°C° 0.1 mm 3 mps 757 mmHg 72%
    01:00 +25°C° 0.2 mm 2 mps 757 mmHg 75%
    02:00 +24°C° 0.2 mm 2 mps 757 mmHg 78%
    03:00 +24°C° 0.2 mm 2 mps 757 mmHg 81%
    04:00 +24°C° 0.4 mm 2 mps 757 mmHg 81%
    05:00 +24°C° 0.4 mm 2 mps 757 mmHg 81%
    06:00 +25°C° 0.4 mm 3 mps 757 mmHg 81%
    07:00 +26°C° 0 mm 3 mps 757 mmHg 75%
    08:00 +28°C° 0 mm 3 mps 757 mmHg 68%
    09:00 +29°C° 0 mm 3 mps 757 mmHg 62%
    10:00 +30°C° 0 mm 3 mps 756 mmHg 56%
    11:00 +31°C° 0 mm 3 mps 756 mmHg 51%
    12:00 +33°C° 0 mm 4 mps 756 mmHg 46%
    13:00 +34°C° 0 mm 4 mps 756 mmHg 46%
    14:00 +34°C° 0 mm 4 mps 756 mmHg 46%
    15:00 +34°C° 0 mm 5 mps 755 mmHg 46%
    16:00 +33°C° 0 mm 4 mps 756 mmHg 50%
    17:00 +32°C° 0 mm 4 mps 756 mmHg 54%
    18:00 +32°C° 0 mm 4 mps 756 mmHg 58%
    19:00 +29°C° 0 mm 4 mps 756 mmHg 63%
    20:00 +27°C° 0 mm 3 mps 756 mmHg 68%
    21:00 +25°C° 0 mm 3 mps 756 mmHg 73%
    22:00 +25°C° 0 mm 3 mps 756 mmHg 75%
    23:00 +24°C° 0 mm 3 mps 756 mmHg 78%

    28 June, Thursday

    Time Temperature Precipitation Wind Pressure Humidity
    00:00 +22°C° 0 mm 3 mps 756 mmHg 80%
    01:00 +22°C° 0 mm 3 mps 756 mmHg 82%
    02:00 +21°C° 0 mm 3 mps 756 mmHg 84%
    03:00 +20°C° 0 mm 3 mps 756 mmHg 86%
    04:00 +21°C° 0 mm 3 mps 756 mmHg 82%
    05:00 +22°C° 0 mm 4 mps 757 mmHg 79%
    06:00 +23°C° 0 mm 4 mps 757 mmHg 76%
    07:00 +25°C° 0 mm 4 mps 757 mmHg 69%
    08:00 +27°C° 0 mm 5 mps 757 mmHg 63%
    09:00 +29°C° 0 mm 5 mps 757 mmHg 57%
    10:00 +29°C° 0 mm 5 mps 757 mmHg 53%
    11:00 +30°C° 0 mm 5 mps 756 mmHg 50%
    12:00 +32°C° 0 mm 5 mps 756 mmHg 46%
    13:00 +32°C° 0 mm 5 mps 756 mmHg 47%
    14:00 +32°C° 0 mm 5 mps 756 mmHg 47%
    15:00 +32°C° 0 mm 5 mps 756 mmHg 47%
    16:00 +30°C° 0 mm 5 mps 756 mmHg 50%
    17:00 +29°C° 0 mm 5 mps 756 mmHg 53%
    18:00 +29°C° 0 mm 5 mps 756 mmHg 56%
    19:00 +27°C° 0 mm 5 mps 757 mmHg 60%
    20:00 +25°C° 0 mm 4 mps 757 mmHg 64%
    21:00 +22°C° 0 mm 4 mps 757 mmHg 67%
    22:00 +21°C° 0 mm 4 mps 757 mmHg 70%
    23:00 +20°C° 0 mm 3 mps 757 mmHg 72%
    Show more